Skip Page Navigation
NASA JPL Caltech
NASA Logo - Jet Propulsion Laboratory + View the NASA Portal
+ Near-Earth Object (NEO) Program
Search JPL
JPL Home Earth Solar System Stars & Galaxies Technology
JPL Solar System Dynamics
BODIES ORBITS EPHEMERIDES TOOLS PHYSICAL DATA DISCOVERY FAQ SITE MAP
JPL Small-Body Database Browser
Search: [ help ]  
23594 (1995 VJ2)
Classification: Main-belt Asteroid          SPK-ID: 2023594
Ephemeris | Orbit Diagram | Orbital Elements | Physical Parameters | Discovery Circumstances ]

[ show orbit diagram ]
Orbital Elements at Epoch 2456400.5 (2013-Apr-18.0) TDB
Reference: JPL 1 (heliocentric ecliptic J2000)
 Element Value Uncertainty (1-sigma)   Units 
e .1145148657453208 1.0498e-07  
a 2.469908150935911 2.723e-08 AU
q 2.187066950628211 2.5772e-07 AU
i 15.39880038016537 1.0316e-05 deg
node 67.3263817615529 3.292e-05 deg
peri 334.3498838520373 5.8644e-05 deg
M 187.6129734734093 5.719e-05 deg
tp 2457079.424857464611
(2015-Feb-25.92485746)
0.00023228 JED
period 1417.815212733303
3.88
2.3447e-05
6.419e-08
d
yr
n .2539117910196365 4.199e-09 deg/d
Q 2.75274935124361 3.0349e-08 AU
  Orbit Determination Parameters
   # obs. used (total)      541  
   data-arc span      6363 days (17.42 yr)  
   first obs. used      1995-11-13  
   last obs. used      2013-04-15  
   planetary ephem.      DE405  
   SB-pert. ephem.      SB405-CPV-2  
   condition code      0  
   fit RMS      .5629  
   data source      ORB  
   producer      Otto Matic  
   solution date      2013-Apr-29 14:36:07  

Additional Information
 Earth MOID = 1.20506 AU 
 T_jup = 3.426 
[ show covariance matrix ]

Ephemeris | Orbit Diagram | Orbital Elements | Physical Parameters | Discovery Circumstances ]

Physical Parameter Table
Parameter Symbol Value Units Sigma Reference Notes
absolute magnitude H 14.0 mag n/a PDS3 (MPO 11135)  

23594 (1995 VJ2)          Discovered 1995-Nov-13 by Shimizu, Y., Urata, T. at Nachi-Katsuura (905)
Reference: 20010408/Numbers.arcLast Updated: 2004-04-19
Ephemeris | Orbit Diagram | Orbital Elements | Physical Parameters | Discovery Circumstances ]
ABOUT SSD CREDITS/AWARDS PRIVACY/COPYRIGHT GLOSSARY LINKS
FirstGov 2013-May-22 06:32 UT
(server date/time)  
NASA Home Page
Site Manager:   Donald K. Yeomans
Webmaster  Alan B. Chamberlin